Orbital elements:
2012 UQ138 Earth MOID = 0.2901 AU
Epoch 2012 Sept. 30.0 TT = JDT 2456200.5 MPC
M 349.08608 (2000.0) P Q
n 0.29097862 Peri. 71.66805 +0.72865314 -0.68392701
a 2.2554264 Node 331.44938 +0.59632308 +0.65952412
e 0.4366481 Incl. 4.34058 +0.33684328 +0.31188424
P 3.39 H 23.4 G 0.15 U 8